Regional Weather Roundup
Issued by NWS

Home | Current Version | Previous Version | Graphics & Text | Print | Product List | Glossary On
Versions: 1 2 3 4 5 6 7 8 9 10 11 12 13 14 15 16 17 18 19 20 21 22 23 24 25 26 27 28 29 30 31 32 33 34 35 36 37 38 39 40 41 42 43 44 45 46 47 48 49 50
000
ASUS43 KLMK 231202
RWRKY
KENTUCKY REGIONAL WEATHER ROUNDUP
NATIONAL WEATHER SERVICE LOUISVILLE KY
700 AM EST THU FEB 23 2017

NOTE "FAIR" INDICATES FEW OR NO CLOUDS BELOW 12,000 FEET
WITH NO SIGNIFICANT WEATHER AND/OR OBSTRUCTIONS TO VISIBILITY.

KYZ001>023-026-027-061>063-070>075-231300-
WESTERN AND SOUTH CENTRAL KENTUCKY

CITY           SKY/WX    TMP DP  RH WIND       PRES   REMARKS
PADUCAH        CLEAR     55  52  89 S6        29.77F
HENDERSON      CLEAR     55  50  82 S7        29.79R
OWENSBORO      CLEAR     55  53  93 S7        29.81S
HOPKINSVILLE   CLOUDY    58  58 100 SE3       29.83R
BOWLING GREEN  CLOUDY    55  53  93 CALM      29.85S FOG
GLASGOW        NOT AVBL
$$

KYZ024-025-028>034-038-045-046-053-231300-
NORTH CENTRAL KENTUCKY

CITY           SKY/WX    TMP DP  RH WIND       PRES   REMARKS
LOUISVILLE/SDF CLOUDY    61  55  81 CALM      29.82S
LOUISVILLE/LOU CLOUDY    60  55  83 CALM      29.83R
FORT KNOX      CLOUDY    58  58  99 S8        29.81F
$$

KYZ035>037-039>044-047>052-055>060-089>105-231300-
NORTHEAST KENTUCKY

CITY           SKY/WX    TMP DP  RH WIND       PRES   REMARKS
LEXINGTON      CLOUDY    56  53  90 S7        29.86R
COVINGTON      CLOUDY    59  55  87 S8        29.81S
FRANKFORT      CLOUDY    57  53  86 S5        29.83S
$$

KYZ054-064>069-076>088-106>120-231300-
SOUTHEAST KENTUCKY

CITY           SKY/WX    TMP DP  RH WIND       PRES   REMARKS
JACKSON        CLOUDY    54  51  90 VRB5      29.88S
LONDON         FOG       47  46  97 CALM      29.89R VSB 1/4
SOMERSET       FOG       50  50 100 CALM      29.90R VSB 1/2
MIDDLESBORO    FOG       45  45 100 CALM      29.93R VSB 1/2
MONTICELLO     FOG       46  46 100 NW9       29.90R VSB 1/2
$$




USA.gov is the U.S. government's official web portal to all federal, state and local government web resources and services.